TimeMDT,TemperatureF,Dew PointF,Humidity,Sea Level PressureIn,VisibilityMPH,Wind Direction,Wind SpeedMPH,Gust SpeedMPH,PrecipitationIn,Events,Conditions,WindDirDegrees,DateUTC
12:53 AM,30.9,3.9,32,29.96,10.0,NNW,8.1,-,N/A,,Clear,340,2012-10-18 06:53:00
1:53 AM,30.0,3.9,33,29.97,10.0,NNW,13.8,21.9,N/A,,Clear,330,2012-10-18 07:53:00
2:53 AM,30.0,5.0,35,29.99,10.0,NNW,15.0,28.8,N/A,,Clear,330,2012-10-18 08:53:00
3:53 AM,28.9,3.9,35,30.00,10.0,NNW,15.0,28.8,N/A,,Clear,330,2012-10-18 09:53:00
4:53 AM,28.0,3.9,36,30.03,10.0,NNW,12.7,19.6,N/A,,Clear,340,2012-10-18 10:53:00
5:53 AM,28.9,6.1,38,30.05,10.0,North,13.8,19.6,N/A,,Clear,350,2012-10-18 11:53:00
6:53 AM,28.9,7.0,40,30.07,10.0,NNW,9.2,24.2,N/A,,Clear,330,2012-10-18 12:53:00
7:53 AM,28.9,6.1,38,30.10,10.0,NW,5.8,-,N/A,,Partly Cloudy,320,2012-10-18 13:53:00
8:53 AM,33.1,7.0,34,30.09,10.0,NNW,12.7,21.9,N/A,,Clear,330,2012-10-18 14:53:00
9:53 AM,35.1,7.0,31,30.07,10.0,NW,12.7,23.0,N/A,,Clear,320,2012-10-18 15:53:00
10:53 AM,37.0,9.0,31,30.05,10.0,NW,16.1,27.6,N/A,,Clear,320,2012-10-18 16:53:00
11:53 AM,39.9,10.0,29,30.02,10.0,WNW,21.9,28.8,N/A,,Clear,300,2012-10-18 17:53:00
12:53 PM,42.1,10.0,27,30.01,10.0,NW,20.7,29.9,N/A,,Clear,310,2012-10-18 18:53:00
1:53 PM,43.0,9.0,25,29.99,10.0,WNW,23.0,31.1,N/A,,Clear,300,2012-10-18 19:53:00
2:53 PM,45.0,10.0,24,29.96,10.0,WNW,18.4,27.6,N/A,,Clear,300,2012-10-18 20:53:00
3:53 PM,46.0,10.9,24,29.98,10.0,NW,20.7,26.5,N/A,,Clear,310,2012-10-18 21:53:00
4:53 PM,45.0,10.9,25,30.01,10.0,NW,17.3,25.3,N/A,,Clear,310,2012-10-18 22:53:00
5:53 PM,41.0,10.9,29,30.06,10.0,NNW,10.4,26.5,N/A,,Clear,330,2012-10-18 23:53:00
6:53 PM,37.9,12.0,35,30.09,10.0,NNW,10.4,-,N/A,,Clear,340,2012-10-19 00:53:00
7:53 PM,34.0,12.0,40,30.13,10.0,NNW,6.9,-,N/A,,Clear,340,2012-10-19 01:53:00
8:53 PM,28.9,12.9,51,30.16,10.0,North,5.8,-,N/A,,Clear,10,2012-10-19 02:53:00
9:53 PM,30.0,12.9,49,30.13,10.0,NE,9.2,-,N/A,,Clear,40,2012-10-19 03:53:00
10:53 PM,28.9,12.9,51,30.13,10.0,NNE,6.9,-,N/A,,Clear,20,2012-10-19 04:53:00
11:53 PM,28.0,12.9,53,30.11,10.0,NE,6.9,-,N/A,,Clear,50,2012-10-19 05:53:00